Regional Weather Roundup
Issued by NWS

Home | Current Version | Previous Version | Graphics & Text | Print | Product List | Glossary On
Versions: 1 2 3 4 5 6 7 8 9 10 11 12 13 14 15 16 17 18 19 20 21 22 23 24 25 26 27 28 29 30 31 32 33 34 35 36 37 38 39 40 41 42 43 44 45 46 47 48 49 50
000
ASUS43 KDMX 191406
RWRIA

WEATHER ROUNDUP FOR IOWA
NATIONAL WEATHER SERVICE DES MOINES IA
900 AM CDT TUE SEP 19 2017

NOTE: "FAIR" INDICATES FEW OR NO CLOUDS BELOW 12,000 FEET WITH NO
SIGNIFICANT WEATHER AND/OR OBSTRUCTIONS TO VISIBILITY.

* - THESE STATIONS ARE NOT NWS STATIONS...THUS NOT UNDER NWS
QUALITY CONTROL.  THEY ALSO DO NOT REPORT WEATHER SUCH
AS PRECIPITATION OR FOG.

IAZ001>003-012>014-020>022-031>034-043>046-191500-
   NORTHWEST IOWA

CITY           SKY/WX    TMP DP  RH WIND       PRES   REMARKS
CARROLL *      CLOUDY    64  64 100 SE12      29.86S FOG
CHEROKEE *     CLOUDY    67  66  97 SE13      29.83F
DENISON *      CLOUDY    66  66 100 S10       29.86S
LE MARS *      CLOUDY    68  66  94 SE12G17   29.80S FOG
ORANGE CITY *  CLOUDY    66  66 100 SE8       29.81F FOG
SHELDON *      CLOUDY    66  66 100 SE14      29.81S FOG
SIOUX CITY     CLOUDY    67  67 100 SE12      29.79F FOG
SPENCER        CLOUDY    67  65  93 SE12      29.85F FOG
STORM LAKE *   CLOUDY    66  64  94 SE10      29.85F FOG
$$

IAZ055>058-069>071-079>083-090>094-191500-
   SOUTHWEST IOWA

CITY           SKY/WX    TMP DP  RH WIND       PRES   REMARKS
ATLANTIC *     CLOUDY    68  66  94 S10       29.86S FOG
AUDUBON *      PTSUNNY   68  64  88 S13       29.87S
CLARINDA *     CLOUDY    70  68  94 SE6       29.89S FOG
COUNCIL BLFS * CLOUDY    66  66 100 S12       29.84S FOG
CRESTON *      CLOUDY    64 N/A N/A SE9       29.90S FOG
HARLAN  *      CLOUDY    66  66 100 S9G16     29.88S FOG
LAMONI         FOG       65  65 100 SE7       29.90S VSB 1/4
RED OAK *      CLOUDY    68  66  94 SE8       29.85F FOG
SHENANDOAH *   MOSUNNY   70  68  94 SE8       29.85F
$$

IAZ047>049-059>061-072>074-084-191500-
   CENTRAL IOWA

CITY           SKY/WX    TMP DP  RH WIND       PRES   REMARKS
AMES           FOG       63  63 100 SE7       29.91R VSB 1/4
ANKENY *       FOG       64  64 100 SE7       29.91R VSB 1/2
BOONE *        FOG       63  63 100 SE10      29.89S VSB<1/4
CHARITON *     FOG       64  64 100 SE8       29.92R VSB 1/2
DES MOINES     FOG       64  64 100 SE7       29.89S VSB 1/4
GRINNELL*      MOSUNNY   65  64  97 E3        29.93S FOG
KNOXVILLE *    FOG       64  64 100 SE8       29.91R VSB<1/4
MARSHALLTOWN   PTSUNNY   65  65 100 E13       29.91F FOG
NEWTON *       FOG       64  64 100 SE7       29.92S VSB 3/4
PELLA *        FOG       65  64  97 SE5       29.93S VSB<1/4
PERRY *        CLOUDY    64  64  99 SE8       29.89S FOG
$$

IAZ004>006-015-016-023>025-035-036-191500-
   NORTH CENTRAL IOWA

CITY           SKY/WX    TMP DP  RH WIND       PRES   REMARKS
ALGONA *       FOG       64  64 100 SE9       29.89S VSB 3/4
CLARION *      CLOUDY    64  64 100 SE12      29.90S FOG
ESTHERVILLE    FOG       63  63 100 SE12      29.86F VSB 1/2
FORT DODGE *   CLOUDY    64  64 100 SE6       29.89S FOG
MASON CITY     FOG       61  61 100 E7        29.93F VSB 1
FOREST CITY *  CLOUDY    63  63 100 SE6       29.91F FOG
IOWA FALLS *   FOG       65  65 100 SE6       29.93S VSB 1/2
$$

IAZ007>011-017>019-026>030-037>042-050>054-066-191500-
   NORTHEAST IOWA

CITY           SKY/WX    TMP DP  RH WIND       PRES   REMARKS
CEDAR RAPIDS   FOG       63  63 100 SE7       29.94S VSB 1/8
CHARLES CITY * FOG       63  63 100 SE5       29.94S VSB 1/2
CLINTON *      CLOUDY    62  61  96 CALM      29.97R FOG
DECORAH *      FOG       59  59 100 VRB7      29.95S VSB<1/4
DUBUQUE        FOG       59  59 100 S5        29.98R VSB 1/4
MONTICELLO *   FOG       61  61 100 VRB6      29.95F VSB<1/4
OELWEIN *      FOG       61  61 100 SE6       29.96R VSB<1/4
WATERLOO       FOG       59  59 100 SE6       29.93S VSB 1/4
$$

IAZ064-065-067-068-078-191500-
   EAST CENTRAL IOWA

CITY           SKY/WX    TMP DP  RH WIND       PRES   REMARKS
DAVENPORT      CLOUDY    62  61  96 CALM      29.98R FOG
IOWA CITY      FOG       65  64  97 E3        29.96S VSB<1/4
MT. PLEASANT * FOG       64  64 100 CALM      29.95R VSB<1/4
MUSCATINE *    FOG       66  66 100 SE5       29.95S VSB 1/2
QUAD CITIES    FOG       64  61  90 E5        29.95S VSB 1/2
$$

IAZ062-063-075>077-085>089-095>099-191500-
   SOUTHEAST IOWA

CITY           SKY/WX    TMP DP  RH WIND       PRES   REMARKS
BURLINGTON     FOG       64  64 100 E6        29.94S VSB<1/4
FAIRFIELD *    FOG       66  66 100 SE5       29.94R VSB<1/4
FORT MADISON * FOG       66  66 100 CALM      29.96R VSB 1/2
KEOKUK *       FOG       66  66 100 S3        29.94S VSB 1
OSKALOOSA *    LGT RAIN  62  61  98 SE3       29.94R VSB<1/4
OTTUMWA        FOG       65  65 100 SE7       29.93S VSB<1/4
WASHINGTON *   FOG       64  64 100 E7        29.95S VSB<1/4
$$

ABBREVIATIONS USED IN REMARKS
   TC - TEMPERATURES IN CELSIUS
  WCI - WIND CHILL INDEX
   HX - HEAT INDEX
  VSB - VISIBILITY
$$





USA.gov is the U.S. government's official web portal to all federal, state and local government web resources and services.